Location: Camerons Lookout
(40.9833°S, 175.9333°E)
Time: 20:35:16
(UTC+00:00)

Spot 2 Rocket - Pass Details

Date: 14 January 2026
Orbit: 753 x 765 km, 98.3° (Epoch: 17 February)

Event Time Altitude Azimuth Distance (km) Brightness Sun altitude
Rises 09:19:50 0° 157° (SSE) 3,252 7.1 -14.3°
Reaches altitude 10° 09:22:25 10° 146° (SE) 2,316 6.1 -14.7°
Maximum altitude 09:26:54 30° 84° (E) 1,338 4.4 -15.2°
Enters shadow 09:28:38 25° 50° (NE) 1,522 4.4 -15.5°
